Weather in Asanovo

Russia / Chuvash Republic     55°18′50″N   47°24′13″E
temp.,
°C
wind,
m/s
gust,
m/s
humid.,
%
clouds,
%
prec.,
mm/h
press.,
hPa
HPBL,
m
2 december, thu
thu200:00−2wsw510745 0.0 994815
03:00−3wsw610728 0.0 996871
06:00−3wsw6117336 0.0 997851
09:00−2wsw51073100 0.1 9991221
12:00−2w6972100 0.1 10011057
15:00−3w696897 0.1 10031093
18:00−4wsw5106845 0.0 1005855
21:00−4sw51067100 0.0 1005683
3 december, fri
fri300:00−3sw61165100 0.0 1006666
03:00−4ssw51189100 0.1 1006636
06:00−3ssw5129080 0.1 1005543
09:00−1sw6139199 0.1 1006553
12:00+1sw61397100 0.1 1007607
15:00+1sw51297100 0.1 1008654
18:00+1ssw51193100 0.2 1010390
21:00+2ssw51194100 0.2 1011385
4 december, sat
sat400:00+2s51295100 0.0 1010423
03:00+3s71593100 0.0 1008566
06:00+4ssw91985100 0.0 1006698
09:00+3ssw91976100 0.0 1005766
12:00+2sw81697100 1.0 1005943
15:000wsw41095100 2.0 1008533
18:000wsw51086100 0.0 1009412
21:00−2wsw41082100 0.0 1011470
5 december, sun
sun500:00−3w498421 0.0 1011558
03:00−3w588693 0.0 1013757
06:00−3w588297 0.1 1014909
09:00−3w588168 0.1 1016764
12:00−3wnw687099 0.0 1017949
15:00−3wnw5769100 0.1 1019989
18:00−3wnw467482 0.0 1020802
21:00−4wnw367892 0.0 1022701
6 december, mon
mon600:00−5nw3680100 0.0 1024617
03:00−5nnw3483100 0.0 1025517
06:00−7n4473100 0.0 1027502
09:00−8nne446694 0.0 1029478
12:00−8ne336084 0.0 1031522
15:00−8ene3459100 0.0 1032447
18:00−9e456239 0.0 1033397
21:00−9ese466493 0.0 1034386